SNOOPI

Last updated on Wed Sep 11 2024 00:02:08 GMT+0000 (Coordinated Universal Time)

1 59563U 98067WN 24253.85867302 .00529321 00000+0 17959-2 0 9997 2 59563 51.6246 241.5439 0006022 55.4501 304.7072 15.87976801 22618
UTC large
Height (km)
Speed (km/s)
/
Latitude / Longitude
Inclination (degrees)
Orbital Period (minutes)
Azimuth
Elevation
Range (km)
Doppler Factor

Next 0 passes for location: London (51.5072 / 0.1276)

Sorry there are no passes over London.